Time,TemperatureF,DewpointF,PressureIn,WindDirection,WindDirectionDegrees,WindSpeedMPH,WindSpeedGustMPH,Humidity,HourlyPrecipIn,Conditions,Clouds,dailyrainin,SoftwareType,DateUTC
2013-09-28 00:06:00,79.7,69.0,29.87,South,169,8.0,8.0,70,0.00,,,0.00,weatherlink.com 1.10,2013-09-28 05:06:00,
2013-09-28 00:21:00,79.7,69.0,29.87,SE,125,4.0,12.0,70,0.00,,,0.00,weatherlink.com 1.10,2013-09-28 05:21:00,
2013-09-28 00:36:00,79.9,69.0,29.87,South,171,7.0,14.0,69,0.00,,,0.00,weatherlink.com 1.10,2013-09-28 05:36:00,
2013-09-28 00:51:00,79.8,69.0,29.87,South,175,8.0,13.0,69,0.00,,,0.00,weatherlink.com 1.10,2013-09-28 05:51:00,
2013-09-28 01:06:00,79.9,68.0,29.87,South,170,3.0,11.0,68,0.00,,,0.00,weatherlink.com 1.10,2013-09-28 06:06:00,
2013-09-28 01:21:00,79.6,69.0,29.87,SE,142,3.0,9.0,69,0.00,,,0.00,weatherlink.com 1.10,2013-09-28 06:21:00,
2013-09-28 01:36:00,79.6,69.0,29.87,SSW,192,4.0,13.0,69,0.00,,,0.00,weatherlink.com 1.10,2013-09-28 06:36:00,
2013-09-28 01:51:00,79.0,68.0,29.86,South,169,5.0,13.0,70,0.00,,,0.00,weatherlink.com 1.10,2013-09-28 06:51:00,
2013-09-28 02:06:00,79.0,68.0,29.87,South,184,4.0,12.0,70,0.00,,,0.00,weatherlink.com 1.10,2013-09-28 07:06:00,
2013-09-28 02:22:00,78.6,69.0,29.86,South,170,4.0,17.0,72,0.00,,,0.00,weatherlink.com 1.10,2013-09-28 07:22:00,
2013-09-28 02:37:00,78.6,69.0,29.87,South,181,3.0,12.0,72,0.00,,,0.00,weatherlink.com 1.10,2013-09-28 07:37:00,
2013-09-28 02:52:00,77.9,69.0,29.86,South,175,2.0,10.0,74,0.00,,,0.00,weatherlink.com 1.10,2013-09-28 07:52:00,
2013-09-28 03:07:00,77.5,69.0,29.86,SE,142,4.0,12.0,75,0.00,,,0.00,weatherlink.com 1.10,2013-09-28 08:07:00,
2013-09-28 03:22:00,77.1,69.0,29.86,SE,143,4.0,12.0,76,0.00,,,0.00,weatherlink.com 1.10,2013-09-28 08:22:00,
2013-09-28 03:37:00,76.9,69.0,29.86,South,173,1.0,10.0,77,0.00,,,0.00,weatherlink.com 1.10,2013-09-28 08:37:00,
2013-09-28 03:52:00,76.7,69.0,29.87,South,182,3.0,8.0,77,0.00,,,0.00,weatherlink.com 1.10,2013-09-28 08:52:00,
2013-09-28 04:07:00,76.6,69.0,29.86,SSE,165,5.0,9.0,77,0.00,,,0.00,weatherlink.com 1.10,2013-09-28 09:07:00,
2013-09-28 04:22:00,76.6,69.0,29.87,SSE,158,3.0,8.0,77,0.00,,,0.00,weatherlink.com 1.10,2013-09-28 09:22:00,
2013-09-28 04:37:00,76.3,69.0,29.87,SSE,167,10.0,10.0,78,0.00,,,0.00,weatherlink.com 1.10,2013-09-28 09:37:00,
2013-09-28 04:52:00,76.2,69.0,29.87,SSE,147,2.0,8.0,77,0.00,,,0.00,weatherlink.com 1.10,2013-09-28 09:52:00,
2013-09-28 05:07:00,76.0,68.0,29.87,SE,132,6.0,11.0,77,0.00,,,0.00,weatherlink.com 1.10,2013-09-28 10:07:00,
2013-09-28 05:22:00,75.8,68.0,29.87,South,180,5.0,10.0,77,0.00,,,0.00,weatherlink.com 1.10,2013-09-28 10:22:00,
2013-09-28 05:37:00,75.6,68.0,29.88,South,180,4.0,12.0,77,0.00,,,0.00,weatherlink.com 1.10,2013-09-28 10:37:00,
2013-09-28 05:52:00,75.4,68.0,29.89,South,188,4.0,10.0,78,0.00,,,0.00,weatherlink.com 1.10,2013-09-28 10:52:00,
2013-09-28 06:07:00,75.6,68.0,29.89,SSE,150,4.0,11.0,78,0.00,,,0.00,weatherlink.com 1.10,2013-09-28 11:07:00,
2013-09-28 06:22:00,75.4,69.0,29.89,SSW,193,5.0,11.0,80,0.00,,,0.00,weatherlink.com 1.10,2013-09-28 11:22:00,
2013-09-28 06:37:00,75.5,69.0,29.89,South,178,4.0,9.0,80,0.00,,,0.00,weatherlink.com 1.10,2013-09-28 11:37:00,
2013-09-28 06:52:00,75.2,69.0,29.89,ESE,117,8.0,10.0,81,0.00,,,0.00,weatherlink.com 1.10,2013-09-28 11:52:00,
2013-09-28 07:07:00,75.1,69.0,29.89,South,175,6.0,11.0,82,0.00,,,0.00,weatherlink.com 1.10,2013-09-28 12:07:00,
2013-09-28 07:22:00,74.9,69.0,29.89,SSE,167,3.0,12.0,83,0.00,,,0.00,weatherlink.com 1.10,2013-09-28 12:22:00,
2013-09-28 07:37:00,75.1,70.0,29.90,South,172,5.0,10.0,83,0.00,,,0.00,weatherlink.com 1.10,2013-09-28 12:37:00,
2013-09-28 07:52:00,75.3,70.0,29.90,SE,139,5.0,14.0,84,0.00,,,0.00,weatherlink.com 1.10,2013-09-28 12:52:00,
2013-09-28 08:07:00,75.9,70.0,29.90,ESE,119,7.0,13.0,83,0.00,,,0.00,weatherlink.com 1.10,2013-09-28 13:07:00,
2013-09-28 08:22:00,76.2,71.0,29.91,SE,143,4.0,13.0,83,0.00,,,0.00,weatherlink.com 1.10,2013-09-28 13:22:00,
2013-09-28 08:37:00,76.4,71.0,29.92,SSE,153,3.0,13.0,83,0.00,,,0.00,weatherlink.com 1.10,2013-09-28 13:37:00,
2013-09-28 08:52:00,77.0,72.0,29.92,SSW,207,4.0,12.0,83,0.00,,,0.00,weatherlink.com 1.10,2013-09-28 13:52:00,
2013-09-28 09:07:00,77.0,72.0,29.92,SSE,157,2.0,11.0,83,0.00,,,0.00,weatherlink.com 1.10,2013-09-28 14:07:00,
2013-09-28 09:22:00,77.1,72.0,29.93,SSE,155,8.0,14.0,83,0.00,,,0.00,weatherlink.com 1.10,2013-09-28 14:22:00,
2013-09-28 09:37:00,77.5,72.0,29.93,SE,145,2.0,11.0,83,0.00,,,0.00,weatherlink.com 1.10,2013-09-28 14:37:00,
2013-09-28 09:52:00,77.9,72.0,29.94,South,178,5.0,12.0,82,0.00,,,0.00,weatherlink.com 1.10,2013-09-28 14:52:00,
2013-09-28 10:07:00,78.3,72.0,29.94,SSE,161,0.0,9.0,81,0.00,,,0.00,weatherlink.com 1.10,2013-09-28 15:07:00,
2013-09-28 10:22:00,78.4,72.0,29.95,South,181,2.0,7.0,81,0.00,,,0.00,weatherlink.com 1.10,2013-09-28 15:22:00,
2013-09-28 10:37:00,78.4,72.0,29.95,South,188,5.0,11.0,81,0.00,,,0.00,weatherlink.com 1.10,2013-09-28 15:37:00,
2013-09-28 10:53:00,78.6,72.0,29.95,SE,144,4.0,8.0,81,0.00,,,0.00,weatherlink.com 1.10,2013-09-28 15:53:00,
2013-09-28 11:07:00,78.8,73.0,29.95,South,178,2.0,10.0,81,0.00,,,0.00,weatherlink.com 1.10,2013-09-28 16:07:00,
2013-09-28 11:22:00,79.4,73.0,29.95,South,171,1.0,12.0,80,0.00,,,0.00,weatherlink.com 1.10,2013-09-28 16:22:00,
2013-09-28 11:37:00,80.2,73.0,29.94,SSE,161,3.0,11.0,79,0.00,,,0.00,weatherlink.com 1.10,2013-09-28 16:37:00,
2013-09-28 11:53:00,82.1,74.0,29.94,SSE,160,3.0,8.0,77,0.00,,,0.00,weatherlink.com 1.10,2013-09-28 16:53:00,
2013-09-28 12:08:00,82.9,74.0,29.94,South,191,5.0,11.0,74,0.00,,,0.00,weatherlink.com 1.10,2013-09-28 17:08:00,
2013-09-28 12:23:00,83.1,74.0,29.93,SE,140,2.0,10.0,74,0.00,,,0.00,weatherlink.com 1.10,2013-09-28 17:23:00,
2013-09-28 12:38:00,82.9,74.0,29.93,SSE,160,3.0,15.0,74,0.00,,,0.00,weatherlink.com 1.10,2013-09-28 17:38:00,
2013-09-28 12:53:00,84.2,75.0,29.92,South,182,3.0,9.0,73,0.00,,,0.00,weatherlink.com 1.10,2013-09-28 17:53:00,
2013-09-28 13:08:00,84.8,74.0,29.91,South,188,4.0,10.0,71,0.00,,,0.00,weatherlink.com 1.10,2013-09-28 18:08:00,
2013-09-28 13:23:00,86.5,75.0,29.90,South,171,2.0,8.0,69,0.00,,,0.00,weatherlink.com 1.10,2013-09-28 18:23:00,
2013-09-28 13:53:00,87.4,75.0,29.88,South,182,3.0,8.0,67,0.00,,,0.00,weatherlink.com 1.10,2013-09-28 18:53:00,
2013-09-28 14:08:00,87.1,74.0,29.88,SSE,148,2.0,6.0,66,0.00,,,0.00,weatherlink.com 1.10,2013-09-28 19:08:00,
2013-09-28 14:23:00,89.0,76.0,29.87,South,175,2.0,7.0,65,0.00,,,0.00,weatherlink.com 1.10,2013-09-28 19:23:00,
2013-09-28 14:38:00,88.2,75.0,29.86,South,178,0.0,6.0,66,0.00,,,0.00,weatherlink.com 1.10,2013-09-28 19:38:00,
2013-09-28 14:53:00,87.6,74.0,29.86,South,190,0.0,10.0,64,0.00,,,0.00,weatherlink.com 1.10,2013-09-28 19:53:00,
2013-09-28 15:08:00,81.9,73.0,29.91,WSW,245,0.0,21.0,74,0.07,,,0.07,weatherlink.com 1.10,2013-09-28 20:08:00,